Location: Abundant Life Assembly of God Church
(32.9382°N, 97.0925°W)
Time: 23:05:01
(UTC+00:00)

Daily predictions for brighter satellites

Satellite Brightness Start Highest point End
(mag) Time Altitude Azimuth Time Altitude Azimuth Time Altitude Azimuth
Milstar 3 Cent rocket 3.6 12:01:50 16° WSW 12:05:29 34° SSW 12:12:43 10° SE
Meteor 2-17 Rocket 4.3 12:00:03 10° N 12:06:07 80° W 12:12:08 10° S
Cosmos 1933 3.3 12:06:42 10° NNW 12:10:34 55° W 12:14:25 10° S
ERS-2 1.6 12:08:26 10° NNE 12:11:23 77° ESE 12:14:16 10° S
Cosmos 1627 Rocket 4.5 12:05:48 10° N 12:12:11 77° W 12:18:28 10° S
SAR-Lupe-2 4.3 12:09:02 10° NNE 12:12:33 55° E 12:16:03 10° S
Cosmos 1862 3.3 12:09:21 10° SSW 12:13:06 51° W 12:16:51 10° N
Cosmos 2151 3.0 12:09:01 10° S 12:13:10 81° E 12:17:23 10° N
COSMO-SKYMED 1 2.7 12:09:06 10° S 12:13:19 51° W 12:17:32 10° NNW
Meteor 2-3 Rocket 4.2 12:08:22 10° SW 12:13:24 34° WNW 12:18:27 10° NNW
PSLV R/B 3.5 12:10:26 10° N 12:14:41 65° WNW 12:18:54 10° SSW
GENESIS II 4.1 12:18:37 10° SSW 12:22:26 84° WNW 12:26:19 10° NNE
USA 215 3.5 12:16:56 10° NNE 12:23:09 49° NW 12:29:23 10° WSW
SJ-7 4.5 12:22:26 10° NNE 12:26:33 85° ESE 12:30:37 10° S
BlueWalker 3 2.1 12:25:35 14° NW 12:28:41 57° SW 12:32:24 10° SSE
SKYMED 3 4.5 12:25:25 10° SSE 12:29:33 86° ENE 12:33:41 10° N
ATLAS 2A CENTAUR R/B 3.5 12:32:13 10° WSW 12:34:29 15° SSW 12:36:01 10° S
SMAP 3.5 12:32:32 10° NNE 12:37:11 68° ESE 12:41:48 10° S
Cosmos 1110 Rocket 4.0 12:32:38 10° NNW 12:37:56 74° WSW 12:43:11 10° S
Cosmos 1842 Rocket 3.8 12:34:17 10° N 12:38:44 75° E 12:43:10 10° S
BREEZE-M R/B 3.2 12:32:17 10° NW 12:39:07 84° SW 12:42:35 10° SE
Aureole 2 4.2 12:36:36 10° NNW 12:39:37 71° ENE 12:42:29 10° SSE
Cosmos 1437 Rocket 3.0 12:38:11 10° SSW 12:41:43 40° W 12:45:13 10° N
Cosmos 1782 4.3 12:39:22 10° NW 12:41:57 17° W 12:44:32 10° SW
H-2A R/B 3.6 12:40:25 10° NW 12:42:22 12° WNW 12:44:20 10° W
Helios 1B rocket 2.7 12:41:11 10° N 12:44:56 42° WNW 12:48:41 10° SW
CENTAUR R/B 4.5 12:37:19 10° NNW 12:45:15 40° NE 12:53:43 10° ESE
CZ-4B R/B 4.1 12:43:39 10° NNE 12:47:42 79° ESE 12:51:53 10° S
DELTA 2 DEB (DPAF) 4.1 12:44:30 10° SSE 12:48:47 88° WSW 12:53:05 10° NNW
Cosmos 1515 4.2 12:46:14 10° NNW 12:49:32 34° W 12:52:49 10° SSW
SL-16 R/B 2.6 23:36:20 10° NNW 23:42:00 72° WSW 23:47:36 10° S
APEX 3.6 23:48:55 10° SW 23:52:00 46° WNW 23:54:48 10° N
Cosmos 1943 3.7 23:47:26 10° N 23:52:38 37° ENE 23:57:49 10° SE
Cosmos-2242 3.0 23:49:09 10° S 23:53:29 81° E 23:57:49 10° N
CZ-2D R/B 4.0 23:49:54 10° S 23:53:30 56° W 23:57:06 10° NNW
